McCutcheon Field, NC

3:19 PM EST on February 19, 2017 (GMT -0500)
New River Marine Corps Air Station

Weather History for KNCA - April, 2013

Change the Weather History Date:

Friday, April 12, 2013

  Actual Average Record
Temperature  
Mean Temperature 73 °F -  
Max Temperature 82 °F 71 °F 84 °F (2001)
Min Temperature 66 °F 49 °F 36 °F (2012)
Cooling Degree Days 8    
Growing Degree Days 23 (Base 50)    
Moisture  
Dew Point 65 °F    
Average Humidity 82    
Maximum Humidity 94    
Minimum Humidity 64    
Precipitation  
Precipitation 0.75 in - - ()
Sea Level Pressure  
Sea Level Pressure 29.82 in    
Wind  
Wind Speed 11 mph (South)    
Max Wind Speed 17 mph    
Max Gust Speed 26 mph    
Visibility 6 miles    
Events Rain , Thunderstorm    
Averages and records for this station are not official NWS values.
T = Trace of Precipitation, MM = Missing Value Source: NWS Daily Summary

Daily Weather History Graph

Daily Weather History Graph

Search for Another Location

Airport or City:

Trip Planner

Search our weather history database for the weather conditions in past years. The results will help you decide how hot, cold, wet, or windy it might be!

Date:

Astronomy

Apr. 12, 2013 Rise Set
Actual Time 6:41 AM EDT 7:39 PM EDT
Civil Twilight 6:15 AM EDT 8:05 PM EDT
Nautical Twilight 5:45 AM EDT 8:36 PM EDT
Astronomical Twilight 5:13 AM EDT 9:07 PM EDT
Moon 7:55 AM EDT (4/12) 10:02 PM EDT (4/12)
Length of Visible Light 13h 49m
Length of Day
12h 58m
Waxing Crescent, 5% of the Moon is Illuminated
Apr 12
Waxing Crescent
Apr 18
First Quarter
Apr 25
Full
May 2
Last Quarter
May 9
New

Hourly Weather History & Observations

Time (EDT) Temp. Heat Index Dew Point Humidity Pressure Visibility Wind Dir Wind Speed Gust Speed Precip Events Conditions
12:23 AM 69.8 °F - 64.4 °F 83% 29.90 in 10.0 mi SSW 10.4 mph 17.3 mph N/A   Scattered Clouds
12:56 AM 70.0 °F - 64.0 °F 81% 29.91 in 10.0 mi South 10.4 mph - N/A   Clear
1:56 AM 69.1 °F - 63.0 °F 81% 29.90 in 10.0 mi South 11.5 mph 18.4 mph N/A   Scattered Clouds
2:08 AM 69.8 °F - 62.6 °F 78% 29.89 in 10.0 mi South 9.2 mph 17.3 mph N/A   Mostly Cloudy
2:21 AM 69.8 °F - 62.6 °F 78% 29.88 in 10.0 mi SSW 10.4 mph 19.6 mph N/A   Scattered Clouds
2:56 AM 69.1 °F - 63.0 °F 81% 29.89 in 10.0 mi South 11.5 mph 19.6 mph N/A   Clear
3:28 AM 69.8 °F - 62.6 °F 78% 29.87 in 10.0 mi South 13.8 mph 21.9 mph N/A   Mostly Cloudy
3:56 AM 70.0 °F - 63.0 °F 78% 29.86 in 10.0 mi South 13.8 mph 26.5 mph N/A   Mostly Cloudy
4:06 AM 69.8 °F - 62.6 °F 78% 29.85 in 10.0 mi South 10.4 mph 19.6 mph N/A   Scattered Clouds
4:56 AM 69.1 °F - 62.1 °F 78% 29.85 in 10.0 mi South 16.1 mph 24.2 mph N/A   Clear
5:56 AM 69.1 °F - 62.1 °F 78% 29.85 in 10.0 mi South 12.7 mph 19.6 mph N/A   Clear
6:30 AM 69.8 °F - 62.6 °F 78% 29.86 in 5.0 mi South 13.8 mph 23.0 mph 0.00 in Rain , Thunderstorm Thunderstorms and Rain
6:51 AM 69.8 °F - 62.6 °F 78% 29.86 in 5.0 mi SSW 15.0 mph 23.0 mph 0.01 in Rain , Thunderstorm Thunderstorms and Rain
6:56 AM 69.1 °F - 63.0 °F 81% 29.86 in 5.0 mi South 11.5 mph 23.0 mph 0.02 in Rain , Thunderstorm Thunderstorms and Rain
7:44 AM 68.0 °F - 64.4 °F 88% 29.85 in 3.0 mi SSW 13.8 mph 23.0 mph 0.07 in Rain , Thunderstorm Thunderstorms and Rain
7:51 AM 68.0 °F - 64.4 °F 88% 29.85 in 2.0 mi South 17.3 mph 24.2 mph 0.11 in Rain , Thunderstorm Thunderstorms and Rain
7:56 AM 66.9 °F - 64.0 °F 90% 29.85 in 2.0 mi South 17.3 mph 25.3 mph 0.13 in Rain , Thunderstorm Thunderstorms and Rain
8:19 AM 66.2 °F - 64.4 °F 94% 29.84 in 3.0 mi South 13.8 mph 23.0 mph 0.07 in Rain , Thunderstorm Thunderstorms and Rain
8:30 AM 66.2 °F - 64.4 °F 94% 29.84 in 4.0 mi South 16.1 mph 25.3 mph 0.08 in Rain Rain
8:50 AM 66.2 °F - 64.4 °F 94% 29.86 in 1.8 mi SSW 12.7 mph - 0.17 in Rain Rain
9:02 AM 66.2 °F - 64.4 °F 94% 29.84 in 2.0 mi South 10.4 mph - 0.01 in Rain Rain
9:13 AM 68.0 °F - 64.4 °F 88% 29.84 in 1.8 mi South 8.1 mph 16.1 mph 0.06 in Rain Rain
9:24 AM 68.0 °F - 64.4 °F 88% 29.84 in 1.0 mi South 10.4 mph 17.3 mph 0.15 in Rain Rain
9:29 AM 68.0 °F - 64.4 °F 88% 29.83 in 3.0 mi South 9.2 mph 17.3 mph 0.16 in Rain Rain
9:44 AM 69.8 °F - 64.4 °F 83% 29.82 in 3.0 mi SSE 11.5 mph 21.9 mph 0.26 in Rain Rain
9:51 AM 69.8 °F - 64.4 °F 83% 29.82 in 3.0 mi South 11.5 mph - 0.26 in Rain Rain
9:56 AM 69.1 °F - 64.9 °F 87% 29.84 in 3.0 mi South 11.5 mph 23.0 mph 0.26 in Rain Rain
10:13 AM 69.8 °F - 66.2 °F 88% 29.82 in 7.0 mi South 11.5 mph - 0.00 in Rain Rain
10:27 AM 69.8 °F - 64.4 °F 83% 29.83 in 1.5 mi South 9.2 mph - 0.10 in Rain Rain
10:38 AM 69.8 °F - 64.4 °F 83% 29.83 in 4.0 mi South 8.1 mph - 0.14 in Rain Rain
10:48 AM 69.8 °F - 64.4 °F 83% 29.83 in 1.5 mi South 12.7 mph - 0.22 in Rain Rain
10:50 AM 69.8 °F - 64.4 °F 83% 29.83 in 0.8 mi South 11.5 mph - 0.32 in Rain Rain
10:56 AM 69.1 °F - 66.0 °F 90% 29.83 in 0.8 mi South 9.2 mph - 0.33 in Rain Rain
10:59 AM 69.8 °F - 66.2 °F 88% 29.83 in 6.0 mi South 6.9 mph 17.3 mph 0.00 in Rain Rain
11:05 AM 69.8 °F - 66.2 °F 88% 29.83 in 6.0 mi South 10.4 mph - 0.00 in Rain Rain
11:13 AM 69.8 °F - 66.2 °F 88% 29.83 in 6.0 mi South 8.1 mph - 0.00 in Rain Rain
11:25 AM 69.8 °F - 66.2 °F 88% 29.83 in 6.0 mi South 8.1 mph - 0.00 in Rain Rain
11:36 AM 69.8 °F - 66.2 °F 88% 29.83 in 6.0 mi South 11.5 mph - 0.00 in Rain Rain
11:56 AM 70.0 °F - 66.0 °F 87% 29.83 in 6.0 mi South 12.7 mph - 0.00 in Rain Rain
12:56 PM 73.0 °F - 68.0 °F 84% 29.80 in 10.0 mi South 9.2 mph - 0.00 in   Mostly Cloudy
1:19 PM 75.2 °F - 68.0 °F 78% 29.78 in 8.0 mi SSW 15.0 mph 18.4 mph N/A   Mostly Cloudy
1:56 PM 79.0 °F - 68.0 °F 69% 29.75 in 9.0 mi SW 11.5 mph 19.6 mph N/A   Mostly Cloudy
2:03 PM 80.6 °F 83.2 °F 68.0 °F 65% 29.74 in 9.0 mi SSW 6.9 mph 19.6 mph N/A   Mostly Cloudy
2:56 PM 80.1 °F 82.3 °F 66.9 °F 64% 29.74 in 9.0 mi South 12.7 mph 21.9 mph 0.01 in   Mostly Cloudy
3:56 PM 78.1 °F - 66.9 °F 68% 29.71 in 9.0 mi South 15.0 mph 25.3 mph N/A   Mostly Cloudy
4:56 PM 77.0 °F - 66.9 °F 71% 29.71 in 9.0 mi South 17.3 mph 21.9 mph N/A   Mostly Cloudy
5:56 PM 72.0 °F - 64.9 °F 78% 29.72 in 7.0 mi SSW 13.8 mph 20.7 mph N/A   Mostly Cloudy
6:56 PM 73.9 °F - 66.0 °F 76% 29.72 in 8.0 mi SW 8.1 mph - 0.00 in   Overcast
7:56 PM 73.0 °F - 66.0 °F 79% 29.73 in 10.0 mi SSW 8.1 mph - N/A   Scattered Clouds
8:56 PM 71.1 °F - 64.9 °F 81% 29.74 in 10.0 mi SSW 5.8 mph - N/A   Clear
10:56 PM 69.1 °F - 64.0 °F 84% 29.75 in 9.0 mi SSW 6.9 mph - N/A   Clear
11:56 PM 68.0 °F - 64.0 °F 87% 29.77 in 8.0 mi SSW 6.9 mph - N/A   Clear